1506798000.12,3662,16.56,74198.0,-0.69,-40.85,-41.03,0,*51
1506798001.32,3663,16.56,74198.0,-0.69,-40.91,-41.03,0,*55
1506798002.53,3664,16.56,74198.5,-0.69,-40.91,-41.03,0,*52
1506798003.78,3665,16.56,74196.0,-0.67,-40.85,-41.03,0,*58
1506798004.98,3666,16.56,74196.0,-0.69,-41.03,-41.03,0,*5A
1506798006.19,3667,16.56,74192.3,-0.69,-41.03,-41.11,0,*58
1506798007.43,3668,16.56,74196.8,-0.67,-40.79,-41.03,0,*56
1506798008.71,3669,16.56,74194.8,-0.67,-40.85,-40.97,0,*58
1506798009.91,3670,16.56,74194.5,-0.69,-40.91,-41.11,0,*54
1506798011.11,3671,16.56,74198.0,-0.69,-40.91,-41.11,0,*55
1506798012.31,3672,16.56,74198.8,-0.69,-40.91,-41.11,0,*56
1506798013.52,3673,16.5,74194.0,-0.69,-40.91,-41.03,0,*54
1506798014.74,3674,16.56,74198.3,-0.69,-40.85,-41.11,0,*55
1506798015.96,3675,16.56,74196.3,-0.69,-40.85,-41.11,0,*54
1506798017.16,3676,16.56,74196.3,-0.69,-40.91,-41.11,0,*52
1506798018.44,3677,16.56,74194.8,-0.67,-40.85,-40.97,0,*57
1506798019.64,3678,16.56,74196.0,-0.69,-40.91,-41.03,0,*5F
1506798020.89,3679,16.56,74198.5,-0.67,-40.79,-41.03,0,*56
1506798022.09,3680,16.5,74192.3,-0.69,-40.91,-41.03,0,*58
1506798023.32,3681,16.56,74196.3,-0.69,-40.85,-41.03,0,*5C
1506798024.54,3682,16.56,74196.8,-0.69,-40.85,-41.03,0,*5F
1506798025.74,3683,16.56,74196.3,-0.69,-40.91,-41.03,0,*5B
1506798026.95,3684,16.56,74196.5,-0.69,-40.91,-41.03,0,*5C
1506798028.18,3685,16.56,74194.0,-0.69,-40.85,-41.03,0,*58
1506798029.4,3686,16.56,74192.8,-0.71,-40.91,-41.11,0,*54
1506798030.63,3687,16.56,74198.8,-0.71,-40.91,-41.03,0,*56
1506798031.83,3688,16.56,74196.5,-0.69,-40.91,-41.03,0,*50
1506798033.06,3689,16.56,74196.0,-0.71,-40.91,-41.11,0,*5B
1506798034.28,3690,16.56,74198.8,-0.71,-40.91,-40.91,0,*5A
1506798035.49,3691,16.5,74192.3,-0.69,-40.91,-41.03,0,*58
1506798036.71,3692,16.5,74194.8,-0.71,-40.91,-41.11,0,*51
1506798037.94,3693,16.56,74198.0,-0.71,-40.91,-41.11,0,*50
1506798039.19,3694,16.56,74198.5,-0.71,-40.85,-41.03,0,*51
1506798040.44,3695,16.56,74198.0,-0.71,-40.85,-41.03,0,*50
1506798041.63,3696,16.56,74194.8,-0.73,-40.91,-41.11,0,*57
1506798042.88,3697,16.56,74194.5,-0.71,-40.85,-41.03,0,*52
1506798044.13,3698,16.56,74196.5,-0.71,-40.85,-41.11,0,*5E
1506798045.35,3699,16.56,74196.0,-0.71,-40.73,-41.03,0,*55
1506798046.55,3700,16.56,74196.3,-0.73,-40.91,-41.03,0,*5A
1506798047.75,3701,16.56,74198.3,-0.73,-40.91,-41.03,0,*5B
1506798049.0,3702,16.56,74200.3,-0.71,-40.85,-40.91,0,*55
1506798050.23,3703,16.56,74198.5,-0.71,-40.91,-41.03,0,*5B
1506798051.46,3704,16.56,74196.5,-0.73,-40.91,-40.97,0,*52
1506798052.66,3705,16.56,74194.8,-0.73,-40.91,-41.03,0,*5F
1506798053.85,3706,16.56,74198.3,-0.73,-40.73,-40.91,0,*5A
1506798055.05,3707,16.56,74198.3,-0.73,-40.91,-41.11,0,*5E
1506798056.28,3708,16.56,74198.5,-0.71,-40.91,-41.03,0,*50
1506798057.51,3709,16.5,74196.5,-0.73,-40.91,-40.97,0,*5F
1506798058.76,3710,16.56,74196.0,-0.71,-40.85,-40.91,0,*56
1506798060.0,3711,16.56,74198.3,-0.73,-40.79,-40.97,0,*50
1506798061.25,3712,16.56,74196.8,-0.71,-40.85,-40.91,0,*54
1506798062.45,3713,16.56,74198.3,-0.73,-40.91,-41.11,0,*5B
1506798063.72,3714,16.56,74196.8,-0.71,-40.85,-40.85,0,*57
1506798064.96,3715,16.56,74196.0,-0.73,-40.79,-40.97,0,*54
1506798066.18,3716,16.5,74196.3,-0.71,-40.73,-40.91,0,*59
1506798067.41,3717,16.5,74196.8,-0.73,-40.91,-40.97,0,*50
1506798068.63,3718,16.56,74198.3,-0.73,-40.73,-40.97,0,*53
1506798069.88,3719,16.56,74196.8,-0.73,-40.79,-40.97,0,*58
1506798071.1,3720,16.56,74198.3,-0.71,-40.73,-40.91,0,*5C
1506798072.32,3721,16.5,74196.0,-0.71,-40.65,-40.91,0,*5A
1506798073.56,3722,16.56,74196.8,-0.71,-40.65,-40.85,0,*5C
1506798074.77,3723,16.5,74196.8,-0.73,-40.65,-40.85,0,*5F
1506798075.98,3724,16.5,74196.0,-0.71,-40.53,-40.73,0,*56
1506798077.19,3725,16.5,74196.3,-0.71,-40.65,-40.73,0,*52
1506798078.41,3726,16.56,74200.3,-0.71,-40.65,-40.91,0,*5D
1506798079.63,3727,16.56,74198.5,-0.71,-40.73,-40.91,0,*5B
1506798080.85,3728,16.5,74196.8,-0.71,-40.73,-40.91,0,*54
1506798082.07,3729,16.56,74198.5,-0.71,-40.73,-40.73,0,*59
1506798083.25,3730,16.56,74198.5,-0.73,-40.65,-40.73,0,*54
1506798084.46,3731,16.56,74198.8,-0.71,-40.65,-40.73,0,*57
1506798085.7,3732,16.5,74198.3,-0.71,-40.53,-40.85,0,*58
1506798086.92,3733,16.56,74196.3,-0.73,-40.79,-40.91,0,*56
1506798088.13,3734,16.56,74198.5,-0.73,-40.73,-40.79,0,*5D
1506798089.33,3735,16.5,74198.5,-0.73,-40.73,-40.91,0,*5A
1506798090.57,3736,16.56,74198.8,-0.71,-40.73,-40.85,0,*5E
1506798091.79,3737,16.5,74196.3,-0.71,-40.47,-40.73,0,*51
1506798093.0,3738,16.5,74196.8,-0.71,-40.65,-40.73,0,*5E
1506798094.21,3739,16.5,74198.0,-0.71,-40.53,-40.73,0,*5A
1506798095.43,3740,16.5,74196.0,-0.71,-40.47,-40.73,0,*51
1506798096.64,3741,16.5,74196.3,-0.71,-40.53,-40.73,0,*55
1506798097.85,3742,16.56,74198.3,-0.71,-40.53,-40.73,0,*56
1506798099.04,3743,16.5,74194.0,-0.73,-40.73,-40.91,0,*5B
1506798100.25,3744,16.5,74198.0,-0.71,-40.65,-40.73,0,*55
1506798101.46,3745,16.5,74198.0,-0.71,-40.65,-40.73,0,*54
1506798102.68,3746,16.56,74198.5,-0.71,-40.73,-40.73,0,*50
1506798103.89,3747,16.5,74196.0,-0.71,-40.65,-40.73,0,*56
1506798105.1,3748,16.56,74198.3,-0.71,-40.65,-40.65,0,*5E
1506798106.31,3749,16.56,74200.3,-0.71,-40.53,-40.73,0,*5D
1506798107.55,3750,16.56,74200.5,-0.71,-40.53,-40.85,0,*5C
1506798108.76,3751,16.5,74196.8,-0.71,-40.53,-40.73,0,*54
1506798109.97,3752,16.56,74198.5,-0.71,-40.53,-40.65,0,*50
1506798111.16,3753,16.5,74196.0,-0.73,-40.65,-40.73,0,*51
1506798112.37,3754,16.56,74202.3,-0.71,-40.65,-40.73,0,*54
1506798113.58,3755,16.5,74198.0,-0.71,-40.65,-40.73,0,*55
1506798114.8,3756,16.5,74198.0,-0.73,-40.73,-40.85,0,*5A
1506798116.01,3757,16.56,74200.0,-0.71,-40.65,-40.73,0,*57
1506798117.22,3758,16.5,74196.3,-0.71,-40.53,-40.73,0,*5D
1506798118.46,3759,16.5,74194.5,-0.71,-40.53,-40.85,0,*55
1506798119.7,3760,16.56,74200.8,-0.71,-40.65,-40.85,0,*5A
1506798120.91,3761,16.5,74198.0,-0.71,-40.65,-40.73,0,*52
1506798122.15,3762,16.56,74198.5,-0.71,-40.65,-40.85,0,*58
1506798123.4,3763,16.56,74202.0,-0.71,-40.73,-40.85,0,*5E
1506798124.61,3764,16.5,74198.5,-0.71,-40.65,-40.91,0,*5B
1506798125.86,3765,16.5,74198.8,-0.71,-40.65,-40.85,0,*5F
1506798127.07,3766,16.5,74196.3,-0.69,-40.65,-40.85,0,*55
1506798128.29,3767,16.5,74196.5,-0.69,-40.53,-40.85,0,*51
1506798129.51,3768,16.5,74196.8,-0.69,-40.65,-40.85,0,*5B
1506798130.72,3769,16.5,74198.5,-0.71,-40.53,-40.65,0,*58
1506798131.93,3770,16.5,74198.8,-0.71,-40.53,-40.65,0,*50
1506798133.17,3771,16.5,74196.8,-0.71,-40.65,-40.85,0,*5A
1506798134.41,3772,16.5,74198.8,-0.71,-40.65,-40.85,0,*59
1506798135.65,3773,16.5,74196.8,-0.71,-40.65,-40.85,0,*58
1506798136.89,3774,16.5,74198.0,-0.71,-40.53,-40.85,0,*5A
1506798138.1,3775,16.56,74200.5,-0.71,-40.73,-40.73,0,*50
1506798139.31,3776,16.56,74202.8,-0.71,-40.53,-40.73,0,*51
1506798140.53,3777,16.5,74192.8,-0.71,-40.65,-40.73,0,*55
1506798141.77,3778,16.5,74198.5,-0.71,-40.53,-40.85,0,*56
1506798142.95,3779,16.5,74198.0,-0.73,-40.53,-40.73,0,*5C
1506798144.14,3780,16.5,74192.5,-0.69,-40.53,-40.73,0,*51
1506798145.33,3781,16.5,74196.0,-0.69,-40.65,-40.73,0,*55
1506798146.57,3782,16.56,74200.3,-0.67,-40.59,-40.65,0,*50
1506798147.76,3783,16.5,74196.8,-0.69,-40.53,-40.73,0,*52
1506798148.94,3784,16.5,74196.5,-0.69,-40.53,-40.65,0,*52
1506798150.13,3785,16.5,74194.8,-0.69,-40.53,-40.73,0,*54
1506798151.32,3786,16.5,74196.8,-0.69,-40.53,-40.73,0,*57
1506798152.5,3787,16.5,74196.3,-0.69,-40.53,-40.73,0,*56
1506798153.74,3788,16.5,74200.3,-0.69,-40.59,-40.79,0,*59
1506798154.96,3789,16.5,74198.3,-0.69,-40.65,-40.85,0,*54
1506798156.17,3790,16.56,74200.8,-0.71,-40.53,-40.65,0,*5E
1506798157.41,3791,16.5,74198.3,-0.71,-40.65,-40.85,0,*54
1506798158.61,3792,16.5,74198.8,-0.69,-40.73,-40.91,0,*5C
1506798159.79,3793,16.5,74196.8,-0.69,-40.65,-40.73,0,*56
1506798160.98,3794,16.5,74198.5,-0.69,-40.53,-40.73,0,*54
1506798162.19,3795,16.5,74196.0,-0.71,-40.65,-40.73,0,*59
1506798163.4,3796,16.5,74198.3,-0.71,-40.65,-40.73,0,*5A
1506798164.61,3797,16.5,74198.0,-0.71,-40.65,-40.73,0,*5B
1506798165.82,3798,16.5,74198.8,-0.71,-40.53,-40.73,0,*51
1506798167.01,3799,16.5,74194.3,-0.69,-40.73,-40.65,0,*5C
1506798168.2,3800,16.5,74196.8,-0.69,-40.65,-40.73,0,*53
1506798169.42,3801,16.56,74202.8,-0.69,-40.65,-40.85,0,*5B
1506798170.68,3802,16.5,74198.5,-0.67,-40.59,-40.79,0,*5A
1506798171.87,3803,16.5,74192.5,-0.69,-40.65,-40.73,0,*50
1506798173.06,3804,16.56,74200.3,-0.69,-40.73,-40.73,0,*50
1506798174.26,3805,16.56,74202.5,-0.69,-40.73,-40.91,0,*5D
1506798175.44,3806,16.5,74198.3,-0.69,-40.65,-40.73,0,*55
1506798176.63,3807,16.5,74196.0,-0.69,-40.73,-40.65,0,*54
1506798177.82,3808,16.5,74198.0,-0.69,-40.73,-40.73,0,*5C
1506798179.04,3809,16.5,74196.0,-0.69,-40.73,-40.85,0,*54
1506798180.26,3810,16.5,74196.5,-0.69,-40.73,-40.85,0,*5C
1506798181.46,3811,16.5,74198.3,-0.69,-40.65,-40.91,0,*5F
1506798182.67,3812,16.5,74196.0,-0.69,-40.65,-40.85,0,*59
1506798183.89,3813,16.5,74198.0,-0.69,-40.65,-40.85,0,*58
1506798185.13,3814,16.56,74200.3,-0.67,-40.59,-40.65,0,*50
1506798186.35,3815,16.56,74200.5,-0.69,-40.73,-40.85,0,*59
1506798187.55,3816,16.5,74198.3,-0.69,-40.53,-40.91,0,*5D
1506798188.79,3817,16.5,74198.8,-0.67,-40.65,-40.85,0,*52
1506798190.06,3818,16.5,74198.3,-0.67,-40.59,-40.79,0,*51
1506798191.25,3819,16.5,74198.0,-0.69,-40.65,-40.91,0,*57
1506798192.47,3820,16.5,74196.5,-0.69,-40.65,-40.85,0,*58
1506798193.74,3821,16.5,74200.3,-0.67,-40.59,-40.79,0,*5B
1506798194.93,3822,16.56,74200.5,-0.69,-40.65,-40.91,0,*5F
1506798196.12,3823,16.5,74198.0,-0.69,-40.65,-40.91,0,*5E
1506798197.37,3824,16.5,74196.3,-0.67,-40.65,-40.85,0,*52
1506798198.56,3825,16.5,74198.5,-0.69,-40.73,-40.91,0,*5F
1506798199.76,3826,16.5,74194.3,-0.69,-40.73,-40.91,0,*5C
1506798200.95,3827,16.5,74198.0,-0.69,-40.65,-40.73,0,*56
1506798202.14,3828,16.56,74202.0,-0.69,-40.73,-40.91,0,*52
1506798203.41,3829,16.5,74202.0,-0.67,-40.59,-40.79,0,*53
1506798204.63,3830,16.5,74198.0,-0.69,-40.73,-40.85,0,*5E
1506798205.85,3831,16.5,74196.5,-0.69,-40.73,-40.85,0,*5F
1506798207.07,3832,16.5,74198.8,-0.69,-40.65,-40.85,0,*5B
1506798208.28,3833,16.5,74202.0,-0.69,-40.65,-40.85,0,*5A
1506798209.5,3834,16.5,74198.5,-0.69,-40.73,-40.85,0,*5A
1506798210.7,3835,16.5,74202.3,-0.69,-40.65,-40.91,0,*59
1506798211.92,3836,16.5,74196.8,-0.69,-40.73,-40.85,0,*58
1506798213.16,3837,16.5,74198.3,-0.67,-40.65,-40.85,0,*50
1506798214.39,3838,16.5,74200.0,-0.69,-40.85,-40.91,0,*5A
1506798215.58,3839,16.5,74198.8,-0.69,-40.73,-40.91,0,*52
1506798216.8,3840,16.5,74196.8,-0.69,-40.73,-40.85,0,*59
1506798218.03,3841,16.5,74196.3,-0.69,-40.85,-40.91,0,*54
1506798219.22,3842,16.5,74196.5,-0.69,-40.73,-40.91,0,*5E
1506798220.42,3843,16.5,74198.0,-0.69,-40.73,-40.91,0,*5F
1506798221.62,3844,16.56,74202.0,-0.69,-40.73,-40.91,0,*58
1506798222.84,3845,16.5,74196.5,-0.69,-40.73,-40.85,0,*5C
1506798224.06,3846,16.5,74196.0,-0.69,-40.73,-40.85,0,*5F
1506798225.25,3847,16.5,74200.3,-0.69,-40.65,-40.91,0,*5C
1506798226.48,3848,16.5,74196.5,-0.69,-40.85,-40.91,0,*5D
1506798227.66,3849,16.5,74198.3,-0.69,-40.65,-40.73,0,*5E
1506798228.88,3850,16.5,74194.3,-0.69,-40.73,-40.85,0,*58
1506798230.1,3851,16.5,74198.5,-0.69,-40.65,-40.85,0,*5E
1506798231.32,3852,16.5,74198.3,-0.69,-40.73,-40.85,0,*5A
1506798232.51,3853,16.5,74196.3,-0.69,-40.65,-40.91,0,*59
1506798233.71,3854,16.5,74198.0,-0.69,-40.65,-40.91,0,*5E
1506798234.93,3855,16.5,74196.8,-0.69,-40.73,-40.85,0,*5D
1506798236.15,3856,16.5,74194.3,-0.69,-40.73,-40.85,0,*5E
1506798237.35,3857,16.5,74198.5,-0.69,-40.73,-40.91,0,*5A
1506798238.54,3858,16.5,74198.0,-0.69,-40.65,-40.91,0,*52
1506798239.73,3859,16.5,74196.0,-0.69,-40.73,-40.91,0,*54
1506798240.95,3860,16.5,74200.8,-0.69,-40.73,-40.85,0,*5B
1506798242.15,3861,16.5,74194.5,-0.69,-40.73,-40.91,0,*5F
1506798243.37,3862,16.5,74200.0,-0.69,-40.73,-40.85,0,*59
1506798244.6,3863,16.5,74198.5,-0.69,-40.85,-41.03,0,*5E
1506798245.84,3864,16.5,74196.8,-0.69,-40.85,-40.85,0,*56
1506798247.07,3865,16.5,74196.0,-0.69,-40.85,-40.91,0,*52
1506798248.31,3866,16.5,74196.0,-0.69,-40.85,-40.85,0,*54
1506798249.53,3867,16.5,74198.0,-0.69,-40.73,-40.85,0,*5C
1506798250.78,3868,16.5,74198.8,-0.67,-40.65,-40.85,0,*5A
1506798251.97,3869,16.5,74198.5,-0.69,-40.73,-40.91,0,*57
1506798253.19,3870,16.5,74194.8,-0.69,-40.65,-40.85,0,*5D
1506798254.42,3871,16.5,74198.3,-0.69,-40.85,-40.91,0,*57
1506798255.66,3872,16.5,74200.0,-0.71,-40.65,-40.85,0,*56
1506798256.88,3873,16.5,74196.3,-0.71,-40.73,-40.91,0,*55
1506798258.12,3874,16.5,74198.8,-0.71,-40.73,-40.85,0,*57
1506798259.34,3875,16.5,74198.0,-0.71,-40.73,-40.91,0,*53
1506798260.59,3876,16.5,74198.5,-0.71,-40.85,-40.91,0,*59
1506798261.84,3877,16.5,74196.0,-0.71,-40.73,-40.85,0,*54
1506798263.08,3878,16.5,74198.8,-0.71,-40.65,-40.85,0,*5C
1506798264.27,3879,16.5,74198.5,-0.69,-40.65,-40.91,0,*51
1506798265.47,3880,16.5,74198.0,-0.69,-40.73,-40.91,0,*50
1506798266.69,3881,16.5,74198.0,-0.69,-40.73,-40.85,0,*54
1506798267.93,3882,16.5,74198.5,-0.69,-40.59,-40.79,0,*5C
1506798269.12,3883,16.5,74198.0,-0.69,-40.73,-40.91,0,*53
1506798270.32,3884,16.5,74198.0,-0.69,-40.73,-40.91,0,*54
1506798271.52,3885,16.5,74198.3,-0.69,-40.73,-40.91,0,*55
1506798272.79,3886,16.5,74198.3,-0.71,-40.85,-40.85,0,*53
1506798274.04,3887,16.5,74194.8,-0.71,-40.85,-40.91,0,*57
1506798275.23,3888,16.5,74200.0,-0.69,-40.73,-40.91,0,*58
1506798276.43,3889,16.5,74194.5,-0.69,-40.65,-40.91,0,*5E
1506798277.62,3890,16.5,74196.8,-0.69,-40.73,-40.91,0,*51
1506798278.84,3891,16.5,74196.0,-0.69,-40.73,-40.85,0,*55
1506798280.04,3892,16.5,74200.5,-0.69,-40.65,-40.91,0,*54
1506798281.26,3893,16.5,74194.8,-0.69,-40.65,-40.85,0,*50
1506798282.47,3894,16.5,74200.3,-0.69,-40.65,-40.85,0,*57
1506798283.72,3895,16.5,74196.0,-0.67,-40.65,-40.85,0,*58
1506798284.94,3896,16.5,74198.3,-0.69,-40.73,-40.85,0,*52
1506798286.15,3897,16.5,74202.8,-0.69,-40.65,-40.85,0,*54
1506798287.35,3898,16.5,74200.0,-0.69,-40.73,-40.91,0,*59
1506798288.55,3899,16.5,74198.8,-0.69,-40.73,-40.91,0,*58
1506798289.76,3900,16.5,74196.8,-0.69,-40.65,-40.85,0,*5B
1506798290.98,3901,16.5,74200.8,-0.69,-40.73,-40.85,0,*5D
1506798292.21,3902,16.5,74196.0,-0.69,-40.85,-40.91,0,*52
1506798293.41,3903,16.5,74198.8,-0.69,-40.73,-40.91,0,*5A
1506798294.6,3904,16.5,74196.0,-0.69,-40.73,-40.91,0,*5D
1506798295.83,3905,16.5,74200.8,-0.69,-40.59,-40.91,0,*54
1506798297.07,3906,16.5,74202.3,-0.67,-40.65,-40.85,0,*53
1506798298.29,3907,16.5,74196.8,-0.69,-40.73,-40.85,0,*5B
1506798299.48,3908,16.5,74196.0,-0.69,-40.65,-40.73,0,*5A
1506798300.72,3909,16.5,74198.5,-0.67,-40.65,-40.85,0,*5C
1506798301.94,3910,16.5,74198.0,-0.69,-40.65,-40.85,0,*5A
1506798303.15,3911,16.5,74198.5,-0.69,-40.73,-40.79,0,*5F
1506798304.35,3912,16.5,74196.5,-0.69,-40.73,-40.91,0,*5A
1506798305.56,3913,16.5,74198.5,-0.69,-40.65,-40.85,0,*59
1506798306.8,3914,16.5,74196.8,-0.67,-40.65,-40.79,0,*53
1506798308.05,3915,16.5,74196.8,-0.69,-40.85,-40.85,0,*51
1506798309.27,3916,16.5,74200.3,-0.69,-40.73,-40.85,0,*5B
1506798310.52,3917,16.5,74196.5,-0.69,-40.85,-40.85,0,*53
1506798311.71,3918,16.5,74200.0,-0.69,-40.73,-40.91,0,*50
1506798312.93,3919,16.5,74200.0,-0.69,-40.73,-40.85,0,*54
1506798314.2,3920,16.5,74200.3,-0.67,-40.79,-40.85,0,*5A
1506798315.4,3921,16.5,74198.3,-0.69,-40.65,-40.91,0,*5D
1506798316.67,3922,16.5,74198.3,-0.67,-40.59,-40.85,0,*5A
1506798317.92,3923,16.5,74196.3,-0.67,-40.59,-40.65,0,*55
1506798319.14,3924,16.5,74196.5,-0.67,-40.65,-41.03,0,*5C
1506798320.33,3925,16.5,74196.8,-0.69,-40.73,-40.91,0,*5E
1506798321.58,3926,16.5,74196.0,-0.67,-40.65,-40.85,0,*51
1506798322.8,3927,16.5,74194.5,-0.69,-40.85,-40.91,0,*55
1506798323.99,3928,16.5,74198.0,-0.69,-40.65,-40.73,0,*58
1506798325.21,3929,16.5,74196.0,-0.69,-40.65,-40.85,0,*50
1506798326.42,3930,16.5,74198.0,-0.69,-40.73,-40.85,0,*5F
1506798327.67,3931,16.5,74196.3,-0.67,-40.65,-40.85,0,*57
1506798328.87,3932,16.5,74196.8,-0.69,-40.73,-40.91,0,*58
1506798330.09,3933,16.5,74200.8,-0.69,-40.73,-40.85,0,*5C
1506798331.28,3934,16.5,74196.3,-0.69,-40.73,-40.91,0,*5E
1506798332.49,3935,16.5,74198.0,-0.69,-40.91,-40.91,0,*53
1506798333.71,3936,16.5,74196.8,-0.69,-40.73,-40.85,0,*59
1506798334.93,3937,16.5,74198.8,-0.69,-40.73,-40.85,0,*58
1506798336.17,3938,16.5,74198.5,-0.67,-40.47,-40.79,0,*5D
1506798337.44,3939,16.5,74198.0,-0.67,-40.79,-40.85,0,*52
1506798338.66,3940,16.5,74198.0,-0.69,-40.73,-40.85,0,*58
1506798339.88,3941,16.5,74198.0,-0.69,-40.65,-40.85,0,*5E
1506798341.1,3942,16.5,74198.3,-0.69,-40.65,-40.85,0,*5D
1506798342.31,3943,16.5,74198.3,-0.69,-40.73,-40.85,0,*5B
1506798343.58,3944,16.5,74202.8,-0.67,-40.59,-40.79,0,*59
1506798344.8,3945,16.5,74198.8,-0.69,-40.65,-40.85,0,*5A
1506798346.01,3946,16.5,74196.3,-0.67,-40.65,-40.65,0,*59
1506798347.28,3947,16.5,74196.8,-0.67,-40.59,-40.79,0,*5A
1506798348.52,3948,16.5,74196.5,-0.67,-40.65,-40.85,0,*59
1506798349.72,3949,16.5,74198.8,-0.69,-40.65,-40.91,0,*53
1506798350.96,3950,16.5,74200.0,-0.67,-40.47,-40.79,0,*53
1506798352.22,3951,16.5,74196.5,-0.67,-40.59,-40.79,0,*5D
1506798353.44,3952,16.5,74200.3,-0.69,-40.73,-40.79,0,*58
1506798354.67,3953,16.5,74196.5,-0.67,-40.65,-40.79,0,*50
1506798355.89,3954,16.5,74198.8,-0.69,-40.73,-40.85,0,*5D
1506798357.13,3955,16.5,74198.5,-0.67,-40.65,-40.79,0,*56
1506798358.37,3956,16.5,74198.3,-0.67,-40.59,-40.65,0,*57
1506798359.64,3957,16.5,74196.8,-0.67,-40.59,-40.79,0,*5B
1506798360.91,3958,16.5,74194.3,-0.67,-40.59,-40.85,0,*57
1506798362.15,3959,16.5,74200.0,-0.67,-40.65,-40.79,0,*5A
1506798363.39,3960,16.5,74198.3,-0.67,-40.65,-40.79,0,*50
1506798364.63,3961,16.5,74196.5,-0.67,-40.65,-40.85,0,*52
1506798365.85,3962,16.5,74198.8,-0.69,-40.65,-40.85,0,*5F
1506798367.12,3963,16.5,74196.3,-0.67,-40.59,-40.79,0,*5C
1506798368.38,3964,16.5,74194.8,-0.67,-40.59,-40.79,0,*5B
1506798369.66,3965,16.5,74196.0,-0.67,-40.59,-40.85,0,*59
1506798370.94,3966,16.5,74196.8,-0.67,-40.85,-40.97,0,*58
1506798372.18,3967,16.5,74196.8,-0.67,-40.79,-41.03,0,*56
1506798373.43,3968,16.5,74196.5,-0.67,-40.65,-40.85,0,*5B
1506798374.65,3969,16.5,74196.8,-0.69,-40.85,-40.91,0,*5F
1506798375.92,3970,16.5,74196.0,-0.67,-40.59,-40.79,0,*5E
1506798377.11,3971,16.5,74196.0,-0.69,-40.73,-40.91,0,*5F
1506798378.36,3972,16.5,74196.5,-0.63,-40.59,-40.73,0,*52
1506798379.63,3973,16.5,74198.5,-0.67,-40.59,-40.85,0,*5E
1506798380.87,3974,16.5,74198.3,-0.67,-40.65,-40.79,0,*55
1506798382.11,3975,16.5,74198.0,-0.67,-40.65,-40.79,0,*54
1506798383.37,3976,16.5,74196.8,-0.67,-40.59,-40.79,0,*58
1506798384.61,3977,16.5,74192.8,-0.67,-40.65,-40.79,0,*56
1506798385.88,3978,16.5,74198.5,-0.67,-40.59,-40.79,0,*56
1506798387.15,3979,16.5,74198.5,-0.63,-40.59,-40.59,0,*51
1506798388.38,3980,16.5,74202.0,-0.67,-40.65,-40.79,0,*5E
1506798389.65,3981,16.5,74196.5,-0.67,-40.59,-40.79,0,*50
1506798390.86,3982,16.5,74196.3,-0.63,-40.53,-40.73,0,*57
1506798392.13,3983,16.5,74196.0,-0.63,-40.59,-40.79,0,*56
1506798393.37,3984,16.5,74194.3,-0.63,-40.73,-40.79,0,*59
1506798394.59,3985,16.5,74200.0,-0.63,-40.53,-40.73,0,*50
1506798395.77,3986,16.5,74194.8,-0.61,-40.53,-40.73,0,*51
1506798397.02,3987,16.5,74200.0,-0.63,-40.59,-40.73,0,*58
1506798398.25,3988,16.5,74196.5,-0.63,-40.53,-40.79,0,*57
1506798399.47,3989,16.5,74198.5,-0.63,-40.53,-40.73,0,*5C
1506798400.71,3990,16.5,74198.8,-0.63,-40.59,-40.73,0,*5E
1506798401.99,3991,16.5,74198.0,-0.67,-40.59,-40.85,0,*52
1506798403.25,3992,16.5,74198.5,-0.67,-40.59,-40.79,0,*52
1506798404.5,3993,16.5,74200.0,-0.67,-40.59,-40.65,0,*5E
1506798405.77,3994,16.5,74200.3,-0.67,-40.59,-40.85,0,*57
1506798407.01,3995,16.5,74198.8,-0.67,-40.65,-40.79,0,*5A
1506798408.25,3996,16.5,74196.3,-0.63,-40.53,-40.59,0,*5A
1506798409.46,3997,16.5,74202.3,-0.61,-40.53,-40.59,0,*59
1506798410.71,3998,16.5,74198.5,-0.63,-40.53,-40.59,0,*54
1506798411.95,3999,16.5,74198.8,-0.63,-40.53,-40.59,0,*55
1506798413.16,4000,16.5,74198.3,-0.61,-40.53,-40.59,0,*59
1506798414.38,4001,16.5,74196.0,-0.61,-40.53,-40.59,0,*58
1506798415.59,4002,16.5,74198.5,-0.63,-40.53,-40.73,0,*51
1506798416.8,4003,16.5,74198.8,-0.61,-40.53,-40.79,0,*58
1506798418.02,4004,16.5,74194.5,-0.63,-40.53,-40.73,0,*57
1506798419.23,4005,16.5,74198.3,-0.61,-40.59,-40.73,0,*5E
1506798420.45,4006,16.5,74198.0,-0.63,-40.53,-40.73,0,*55
1506798421.66,4007,16.5,74198.3,-0.63,-40.53,-40.53,0,*56
1506798422.88,4008,16.5,74196.0,-0.61,-40.53,-40.59,0,*51
1506798424.07,4009,16.5,74192.8,-0.61,-40.53,-40.53,0,*5A
1506798425.31,4010,16.5,74196.5,-0.63,-40.53,-40.59,0,*5A
1506798426.52,4011,16.5,74198.3,-0.61,-40.53,-40.79,0,*5B
1506798427.74,4012,16.5,74198.3,-0.63,-40.53,-40.73,0,*50
1506798428.98,4013,16.5,74196.3,-0.61,-40.59,-40.59,0,*51
1506798430.2,4014,16.5,74198.0,-0.61,-40.53,-40.59,0,*5C
1506798431.47,4015,16.5,74198.0,-0.63,-40.41,-40.59,0,*5C
1506798432.69,4016,16.5,74196.0,-0.61,-40.53,-40.59,0,*5E
1506798433.91,4017,16.5,74196.0,-0.61,-40.41,-40.73,0,*54
1506798435.13,4018,16.5,74194.0,-0.61,-40.53,-40.59,0,*50
1506798436.37,4019,16.5,74196.5,-0.63,-40.53,-40.59,0,*53
1506798437.59,4020,16.5,74194.8,-0.61,-40.41,-40.53,0,*52
1506798438.84,4021,16.5,74198.5,-0.59,-40.29,-40.53,0,*56
1506798440.06,4022,16.5,74194.8,-0.59,-40.53,-40.53,0,*58
1506798441.28,4023,16.5,74198.8,-0.59,-40.35,-40.47,0,*5C
1506798442.5,4024,16.5,74196.5,-0.59,-40.47,-40.53,0,*5B
1506798443.72,4025,16.5,74198.3,-0.61,-40.59,-40.53,0,*5E
1506798444.95,4026,16.5,74192.0,-0.59,-40.47,-40.53,0,*59
1506798446.13,4027,16.5,74196.5,-0.61,-40.53,-40.53,0,*56
1506798447.35,4028,16.5,74198.3,-0.61,-40.59,-40.53,0,*53
1506798448.58,4029,16.5,74196.0,-0.61,-40.41,-40.53,0,*5B
1506798449.8,4030,16.5,74198.8,-0.59,-40.47,-40.73,0,*5C
1506798450.99,4031,16.5,74198.3,-0.57,-40.47,-40.65,0,*54
1506798452.21,4032,16.5,74202.8,-0.59,-40.47,-40.65,0,*59
1506798453.43,4033,16.5,74198.3,-0.59,-40.53,-40.65,0,*5D
1506798454.62,4034,16.5,74196.8,-0.57,-40.47,-40.53,0,*54
1506798455.82,4035,16.5,74198.3,-0.57,-40.47,-40.53,0,*55
1506798457.04,4036,16.5,74198.0,-0.59,-40.35,-40.65,0,*58
1506798458.26,4037,16.5,74198.5,-0.59,-40.47,-40.65,0,*5C
1506798459.48,4038,16.5,74196.0,-0.59,-40.47,-40.65,0,*53
1506798460.7,4039,16.5,74198.5,-0.59,-40.35,-40.65,0,*57
1506798461.89,4040,16.5,74198.0,-0.57,-40.65,-40.65,0,*52
1506798463.1,4041,16.5,74198.0,-0.59,-40.53,-40.73,0,*5F
1506798464.3,4042,16.5,74198.5,-0.57,-40.47,-40.73,0,*57
1506798465.51,4043,16.5,74200.0,-0.59,-40.53,-40.65,0,*5A
1506798466.7,4044,16.5,74196.0,-0.57,-40.47,-40.65,0,*56
1506798467.92,4045,16.5,74196.0,-0.59,-40.53,-40.73,0,*5B
1506798469.14,4046,16.5,74196.0,-0.59,-40.47,-40.73,0,*5D
1506798470.33,4047,16.5,74198.0,-0.57,-40.47,-40.65,0,*55
1506798471.55,4048,16.5,74198.3,-0.59,-40.53,-40.73,0,*56
1506798472.77,4049,16.5,74202.0,-0.59,-40.53,-40.65,0,*50
1506798473.98,4050,16.5,74196.5,-0.59,-40.53,-40.73,0,*5F
1506798475.17,4051,16.5,74198.5,-0.57,-40.53,-40.73,0,*50
1506798476.36,4052,16.5,74200.8,-0.57,-40.53,-40.53,0,*51
1506798477.58,4053,16.44,74192.3,-0.59,-40.53,-40.65,0,*5B
1506798478.76,4054,16.5,74196.3,-0.57,-40.53,-40.73,0,*55
1506798479.95,4055,16.5,74196.0,-0.57,-40.47,-40.65,0,*56
1506798481.14,4056,16.5,74198.5,-0.57,-40.65,-40.73,0,*52
1506798482.36,4057,16.44,74192.0,-0.59,-40.53,-40.73,0,*58
1506798483.54,4058,16.5,74198.8,-0.57,-40.53,-40.65,0,*5E
1506798484.73,4059,16.5,74198.8,-0.57,-40.65,-40.65,0,*5A
1506798485.92,4060,16.5,74198.8,-0.57,-40.53,-40.65,0,*55
1506798487.1,4061,16.5,74200.5,-0.57,-40.53,-40.73,0,*53
1506798488.29,4062,16.5,74198.5,-0.57,-40.53,-40.73,0,*50
1506798489.51,4063,16.5,74196.8,-0.59,-40.53,-40.73,0,*5F
1506798490.69,4064,16.5,74198.5,-0.57,-40.65,-40.73,0,*53
1506798491.88,4065,16.5,74198.0,-0.57,-40.65,-40.65,0,*55
1506798493.07,4066,16.5,74196.0,-0.57,-40.53,-40.65,0,*53
1506798494.26,4067,16.5,74200.0,-0.57,-40.47,-40.65,0,*57
1506798495.44,4068,16.5,74198.5,-0.57,-40.65,-40.73,0,*5F
1506798496.66,4069,16.5,74198.8,-0.59,-40.47,-40.65,0,*57
1506798497.85,4070,16.5,74196.3,-0.57,-40.53,-40.65,0,*54
1506798499.04,4071,16.5,74198.5,-0.57,-40.65,-40.65,0,*50
1506798500.26,4072,16.5,74196.3,-0.59,-40.47,-40.65,0,*5D
1506798501.44,4073,16.5,74198.3,-0.57,-40.53,-40.65,0,*57